Vorticity
4 5 5 5 5 5 6 6 6 6 7 6 6 6 6 6 6 6 5 5 5 5 4 4 4 4 4 4 4 4 4 4 4 5 5 5 4 4 4 4 4 4 3 3 3 3 3 4 5 5 6 6 6 6 7 7 7 8 8 8 9 9 9 9 9 10 10 11 11
5 5 5 6 6 7 7 7 7 7 7 6 6 6 6 6 6 6 6 6 5 5 5 4 4 4 5 6 5 4 4 4 5 5 5 5 5 5 5 5 4 4 3 3 3 3 3 4 5 6 6 6 7 7 8 9 9 9 10 10 10 10 9 10 11 11 11 10 10
6 7 7 7 7 8 8 8 8 7 7 7 7 7 6 6 6 6 6 6 6 5 4 5 5 6 6 6 6 5 5 6 6 6 6 6 6 5 5 5 4 4 3 3 3 4 4 5 6 6 6 7 7 8 8 9 10 11 11 11 10 10 11 12 12 12 12 12 12
8 8 8 8 9 9 9 9 9 8 8 8 7 7 7 7 6 6 6 5 5 5 5 6 6 7 7 6 6 6 7 7 7 6 6 6 6 5 5 4 4 3 3 3 4 4 5 6 6 6 7 7 7 8 8 8 9 11 11 10 9 10 12 12 12 12 12 12 12
10 10 10 10 10 10 10 10 9 9 8 8 7 7 7 6 6 5 5 5 6 6 7 8 8 8 8 7 6 6 7 7 7 6 6 5 5 4 3 3 3 3 3 3 4 5 5 6 6 7 7 7 7 8 8 8 9 10 10 10 11 11 11 10 11 12 12 11 12
12 12 12 12 12 12 11 10 9 9 8 7 7 7 7 7 6 6 6 7 8 9 10 11 10 9 8 7 7 7 7 7 6 6 5 4 4 3 2 2 2 2 3 4 4 5 6 6 7 7 7 7 8 8 9 9 10 9 9 10 11 11 11 11 11 11 11 11 12
15 14 14 13 13 11 10 9 8 8 7 7 7 7 7 6 7 7 8 9 10 12 13 12 10 9 8 8 8 8 7 6 5 4 4 3 3 2 2 2 2 3 3 4 5 6 6 7 7 7 8 9 9 9 10 12 11 10 10 11 11 11 12 12 12 12 12 12 12
15 14 13 11 10 9 8 7 7 7 7 7 8 7 7 7 8 9 10 12 13 13 13 11 9 8 7 7 7 6 6 4 4 3 3 2 2 2 2 3 3 3 4 4 5 6 7 8 8 8 8 10 10 10 11 12 12 12 12 11 11 12 13 13 13 13 13 13 13
12 10 9 7 6 6 5 5 6 6 7 7 8 8 9 10 11 12 13 14 13 12 10 9 8 7 7 6 6 5 4 3 3 2 2 2 2 3 3 3 3 4 4 5 6 7 7 8 8 9 9 9 10 10 11 11 12 12 13 12 12 13 14 14 14 14 15 14 15
6 5 4 3 3 3 3 4 6 7 8 9 10 11 12 13 13 14 13 12 10 9 8 8 7 6 6 5 4 4 3 3 3 3 2 2 3 3 3 3 4 4 5 6 7 7 7 8 8 8 9 10 10 10 10 12 12 13 13 14 14 14 15 15 16 16 16 16 16
3 2 2 1 1 2 3 4 6 8 10 11 12 13 14 14 14 13 11 8 8 7 7 6 5 5 4 4 3 3 3 3 3 3 3 3 3 3 4 4 5 5 6 7 7 8 8 8 8 8 9 11 11 11 12 13 14 14 15 16 16 16 17 17 17 18 18 18 18
3 2 2 2 2 3 4 6 8 10 12 13 14 14 14 13 11 9 7 7 7 6 5 5 4 4 4 3 3 3 3 3 3 3 3 4 4 4 4 5 6 6 7 7 8 8 8 8 9 10 10 12 13 13 14 15 16 16 17 17 18 18 18 18 19 19 19 19 19
4 4 4 5 5 5 6 7 9 10 12 13 13 12 11 10 8 7 6 6 5 5 4 4 3 3 3 3 3 3 3 3 3 3 4 4 4 4 5 5 6 7 7 8 8 8 9 10 11 12 13 13 15 16 17 17 18 18 18 18 18 19 19 19 20 20 19 19 19
6 6 6 6 6 7 7 8 9 10 11 11 10 9 8 7 7 6 5 4 4 4 4 3 3 3 3 4 4 3 4 4 4 4 4 4 4 5 6 6 7 7 8 8 9 10 10 12 13 14 15 16 17 18 18 19 19 19 19 18 19 19 19 20 20 19 19 18 17
8 8 7 6 6 6 7 8 8 9 10 9 8 7 7 6 5 5 4 4 4 4 4 4 4 4 3 3 4 4 4 4 4 4 4 5 5 6 6 7 7 8 9 9 10 12 13 14 15 17 18 18 19 19 19 19 19 19 19 19 19 19 19 19 18 18 17 16 15
9 8 7 6 6 7 7 8 8 9 9 8 7 6 6 5 5 4 4 4 4 4 4 4 4 4 4 3 3 4 4 4 4 4 5 5 6 7 7 8 9 10 10 11 12 13 15 17 18 19 20 20 20 20 20 20 20 20 20 20 19 19 18 17 16 15 14 13 13
9 8 7 7 7 7 8 8 9 8 8 7 6 5 5 5 5 4 4 4 4 4 4 4 4 4 4 3 3 3 4 4 4 5 6 6 7 8 8 9 10 11 12 13 14 16 18 19 20 21 21 21 20 20 20 20 20 20 19 19 18 17 16 14 14 13 13 13 13
10 9 8 7 8 8 9 9 9 8 7 6 5 5 5 4 4 4 4 4 4 4 4 4 4 3 3 4 3 4 4 5 5 6 6 7 8 9 9 10 12 13 14 15 17 19 20 21 21 21 21 20 20 20 20 20 19 18 18 16 15 14 13 13 12 13 13 13 14
11 10 9 9 9 9 9 9 8 7 6 5 5 5 5 5 4 4 4 4 4 4 4 4 4 3 3 4 4 4 5 5 6 6 7 8 9 10 11 12 14 15 17 18 20 21 22 22 22 21 20 20 20 19 19 18 17 16 15 14 13 12 12 12 13 13 14 15 16
12 11 10 10 10 10 9 9 7 6 6 5 5 5 5 5 4 4 4 4 4 3 3 4 4 4 3 4 4 5 6 6 7 7 8 10 11 12 13 15 16 18 19 21 22 23 23 22 21 20 20 19 19 18 17 16 15 14 13 12 12 12 13 13 14 16 17 18 20
13 12 11 11 10 10 9 7 6 6 5 5 5 5 5 5 4 4 4 4 4 3 3 3 4 4 4 4 5 6 6 7 8 9 10 11 13 14 16 17 18 20 21 23 23 23 22 21 20 19 19 18 17 16 15 14 13 12 12 12 12 13 14 15 17 18 20 21 22
14 12 11 10 10 9 7 6 6 5 5 5 5 5 4 4 4 3 4 4 4 3 3 4 4 4 5 5 6 7 7 8 10 11 12 13 14 16 18 20 21 22 22 23 23 22 21 20 19 18 17 16 15 14 13 13 12 12 12 12 13 15 16 18 20 21 22 22 22
14 13 11 10 8 7 6 5 5 5 5 5 4 4 4 3 3 3 3 3 3 3 4 4 4 5 6 6 7 8 9 10 11 12 14 15 17 19 20 22 22 22 23 22 21 20 19 18 17 16 15 14 13 13 12 12 12 12 13 13 15 17 19 20 22 22 22 22 21
14 13 11 9 7 6 5 5 4 4 4 4 4 3 3 3 3 3 3 3 4 4 4 5 5 6 7 7 8 9 10 11 12 14 16 18 19 21 22 23 23 22 21 21 20 19 17 16 15 14 14 13 12 12 12 12 13 13 14 16 17 19 20 22 23 22 21 20 19
14 12 10 8 7 5 5 4 4 4 4 3 3 3 3 3 3 4 4 4 4 4 5 6 6 7 8 9 10 11 12 13 14 16 17 19 21 22 22 22 22 21 20 19 18 17 16 15 14 13 13 12 12 12 12 13 14 16 17 18 19 21 22 23 22 21 19 18 17
14 12 10 8 6 5 5 4 4 3 3 3 3 3 3 4 4 4 4 4 5 5 6 7 7 8 9 10 10 11 13 15 17 18 19 20 21 22 22 22 20 19 18 17 16 15 14 14 13 13 13 12 12 12 13 14 16 18 19 20 21 21 22 22 20 19 17 16 16
13 11 9 7 6 5 4 4 3 3 3 3 3 4 4 4 4 4 5 5 6 7 7 8 9 9 10 10 11 13 15 17 19 20 21 21 21 21 21 20 19 18 17 16 15 14 14 14 14 14 13 13 13 13 14 16 18 19 20 21 21 20 20 18 17 16 15 14 15
12 10 8 7 6 5 4 4 3 3 3 3 4 4 4 5 5 5 6 6 7 7 8 9 10 10 10 11 13 15 16 18 20 21 21 21 21 20 19 18 17 16 15 14 14 14 14 14 14 14 14 14 14 15 16 18 19 20 20 19 19 18 16 15 13 12 12 12 13
10 9 7 6 5 4 4 3 3 3 4 4 4 5 5 5 5 6 7 7 8 9 9 10 10 10 11 13 15 16 18 20 21 21 21 21 20 19 18 17 16 15 14 14 14 14 14 14 14 14 15 15 16 17 18 19 19 19 18 17 16 15 14 12 10 9 8 9 11
9 8 7 6 4 4 3 3 4 4 5 5 5 5 5 6 6 7 8 9 9 10 10 9 10 11 13 15 16 17 19 21 21 21 20 20 19 18 17 16 15 14 14 14 14 14 14 14 14 15 16 17 18 18 18 18 18 17 16 15 14 12 10 8 6 6 6 8 10
8 7 6 5 4 4 3 4 4 5 5 5 6 6 6 7 8 8 9 10 10 10 9 10 11 13 14 16 17 19 20 20 21 20 20 18 17 16 15 15 14 14 14 15 15 15 14 14 15 16 18 19 19 18 18 17 16 15 13 12 10 8 6 4 4 5 7 10 13
8 6 5 4 4 4 4 5 5 5 6 6 6 7 7 8 9 10 10 10 9 9 10 11 12 14 15 17 19 20 20 20 20 20 19 17 16 16 15 14 14 14 15 15 15 15 15 15 16 18 19 19 18 17 16 15 13 12 10 8 6 5 4 3 5 8 11 14 15
7 6 5 4 4 4 5 5 6 6 6 7 7 8 8 9 9 9 9 10 10 10 11 12 13 15 17 18 19 20 20 20 19 18 17 16 16 15 14 13 14 14 15 15 15 15 16 16 17 18 19 18 17 15 13 12 10 9 7 6 4 4 4 6 9 12 15 16 15
7 6 5 5 5 5 6 6 6 7 7 8 8 9 9 9 9 9 9 10 10 11 12 13 15 17 18 19 19 19 19 19 18 17 17 16 15 14 13 13 14 15 16 16 16 16 16 17 18 18 17 16 14 12 10 9 8 7 6 6 6 7 8 10 13 15 16 15 13
6 6 5 5 5 6 6 7 7 7 8 8 9 9 10 10 10 10 10 10 10 11 13 15 16 18 19 20 20 19 18 18 18 17 16 15 14 13 13 13 14 16 17 17 17 17 17 18 18 16 14 12 10 9 8 7 7 7 8 9 10 11 12 14 15 15 14 12 10
6 6 6 6 6 6 7 7 8 8 9 9 9 9 9 9 10 10 10 10 10 12 14 15 17 18 19 20 20 19 18 18 17 16 15 14 14 13 13 13 15 17 18 19 18 17 17 17 16 13 10 8 7 6 6 6 8 9 10 12 13 14 14 14 14 13 11 10 8
6 6 6 6 7 7 8 8 8 9 10 10 10 10 9 9 9 10 10 10 11 13 15 16 18 19 20 19 19 18 18 17 16 15 14 14 14 13 13 13 16 18 19 19 18 17 16 15 12 9 7 5 5 5 6 8 9 11 12 13 13 13 13 13 12 11 9 8 8
6 6 6 6 7 8 8 9 9 10 10 10 10 9 9 9 10 10 11 12 13 14 15 17 19 20 19 18 18 18 17 16 15 14 14 14 14 14 13 14 16 19 20 20 18 17 14 11 8 5 4 4 5 6 8 9 10 11 12 12 12 12 11 11 10 9 8 7 7
6 6 7 7 7 8 9 9 10 10 9 9 9 9 9 10 10 11 12 13 14 15 16 18 19 19 18 18 18 17 16 15 14 14 14 14 15 15 14 15 17 19 21 21 18 15 11 7 4 3 3 4 6 8 9 10 11 11 11 10 10 9 9 10 9 8 7 6 6
6 7 7 8 8 8 9 10 10 10 9 9 9 9 10 10 10 11 12 13 15 16 17 18 18 18 18 18 17 16 15 14 14 14 15 15 15 15 16 17 18 20 21 21 16 12 7 4 2 2 4 6 8 9 10 11 11 10 10 10 9 8 8 8 8 7 6 5 5
6 7 8 8 9 9 10 10 10 9 9 9 10 10 10 10 10 11 12 14 16 17 18 18 18 18 17 17 16 15 14 13 14 15 15 15 16 17 18 19 20 21 21 19 14 9 4 2 2 3 5 8 10 11 11 11 11 10 10 10 10 8 7 7 7 7 6 5 5
Height
3089 3088 3087 3086 3085 3084 3083 3082 3081 3079 3078 3077 3076 3074 3073 3072 3071 3069 3068 3067 3066 3064 3063 3062 3060 3059 3057 3056 3054 3052 3050 3048 3047 3045 3043 3041 3039 3038 3036 3034 3032 3030 3028 3027 3025 3023 3021 3019 3017 3015 3013 3012 3011 3009 3008 3006 3004 3003 3001 2998 2997 2995 2993 2991 2989 2988 2986 2984 2982
3086 3085 3084 3083 3082 3081 3080 3079 3078 3076 3075 3074 3073 3071 3070 3069 3068 3066 3065 3063 3062 3060 3059 3058 3056 3055 3053 3051 3049 3048 3046 3044 3043 3041 3039 3037 3035 3033 3032 3030 3028 3027 3025 3023 3021 3019 3018 3016 3013 3011 3009 3008 3006 3005 3003 3001 2999 2998 2995 2993 2991 2989 2987 2985 2984 2982 2980 2979 2977
3083 3082 3081 3080 3079 3078 3077 3076 3074 3073 3072 3071 3069 3068 3067 3065 3064 3063 3061 3060 3058 3057 3055 3053 3052 3050 3049 3047 3045 3043 3042 3040 3038 3037 3035 3033 3032 3030 3028 3026 3024 3023 3021 3019 3017 3015 3013 3011 3009 3007 3005 3003 3002 3000 2998 2997 2994 2992 2990 2988 2986 2984 2982 2980 2978 2977 2975 2973 2971
3080 3079 3078 3077 3076 3075 3073 3073 3071 3070 3069 3067 3066 3065 3063 3062 3060 3059 3058 3056 3054 3053 3051 3049 3048 3046 3045 3043 3041 3040 3038 3036 3035 3033 3031 3029 3028 3026 3024 3023 3021 3019 3017 3015 3013 3011 3009 3007 3004 3002 3000 2998 2997 2995 2993 2992 2990 2988 2985 2983 2981 2979 2977 2975 2973 2971 2969 2967 2965
3077 3076 3075 3074 3073 3072 3071 3069 3068 3067 3065 3064 3063 3061 3060 3058 3057 3055 3053 3052 3051 3049 3048 3046 3044 3042 3041 3039 3038 3036 3034 3033 3031 3029 3028 3026 3024 3023 3021 3019 3017 3015 3013 3011 3008 3006 3004 3002 2999 2997 2995 2993 2992 2990 2988 2986 2984 2982 2980 2978 2976 2974 2972 2970 2968 2966 2964 2962 2960
3074 3073 3072 3071 3070 3068 3067 3066 3065 3063 3062 3061 3059 3058 3056 3055 3053 3051 3050 3048 3047 3045 3044 3042 3040 3039 3037 3036 3034 3033 3031 3029 3027 3025 3023 3022 3020 3019 3017 3015 3013 3011 3008 3006 3004 3002 2999 2997 2995 2992 2990 2988 2986 2984 2983 2981 2979 2976 2974 2973 2971 2969 2967 2965 2963 2961 2959 2957 2955
3071 3070 3069 3068 3067 3065 3064 3063 3061 3060 3059 3058 3056 3055 3053 3051 3049 3048 3046 3044 3043 3042 3040 3038 3037 3035 3033 3032 3030 3029 3027 3025 3023 3022 3020 3018 3017 3015 3013 3011 3009 3007 3004 3002 3000 2997 2995 2992 2990 2988 2985 2983 2981 2979 2977 2975 2973 2971 2968 2967 2965 2963 2961 2959 2957 2955 2953 2951 2950
3068 3067 3066 3065 3063 3062 3061 3059 3058 3057 3056 3054 3053 3051 3049 3048 3046 3044 3043 3041 3040 3038 3037 3035 3034 3032 3030 3028 3027 3025 3023 3022 3020 3018 3016 3015 3013 3011 3009 3007 3005 3003 3000 2998 2996 2993 2990 2988 2985 2983 2981 2978 2976 2974 2972 2970 2968 2965 2963 2961 2959 2957 2955 2953 2951 2949 2947 2945 2944
3065 3064 3063 3062 3060 3059 3058 3056 3055 3054 3052 3051 3049 3048 3046 3044 3043 3041 3040 3038 3037 3035 3033 3032 3030 3028 3027 3025 3023 3022 3020 3018 3016 3014 3013 3011 3009 3007 3005 3003 3001 2999 2997 2994 2992 2989 2986 2983 2981 2978 2976 2974 2972 2969 2967 2965 2963 2960 2957 2955 2953 2952 2950 2948 2946 2944 2942 2939 2938
3062 3061 3060 3058 3057 3056 3054 3053 3052 3050 3049 3048 3046 3044 3043 3041 3040 3038 3037 3035 3033 3032 3030 3029 3027 3025 3023 3022 3020 3018 3016 3014 3012 3011 3009 3007 3005 3003 3001 2999 2997 2995 2993 2990 2988 2985 2982 2979 2977 2974 2972 2969 2967 2964 2962 2960 2957 2955 2952 2950 2948 2946 2944 2942 2940 2938 2936 2934 2932
3059 3058 3056 3055 3053 3052 3051 3050 3048 3047 3045 3044 3043 3041 3040 3038 3037 3035 3033 3032 3030 3029 3027 3025 3024 3022 3020 3018 3016 3014 3013 3010 3008 3007 3005 3003 3001 2999 2997 2995 2993 2990 2988 2986 2983 2980 2978 2975 2972 2969 2967 2965 2962 2959 2957 2954 2952 2949 2946 2944 2942 2940 2938 2936 2934 2933 2931 2928 2926
3056 3054 3053 3052 3050 3049 3048 3046 3045 3043 3042 3041 3039 3038 3037 3035 3033 3032 3030 3029 3027 3026 3024 3022 3020 3018 3016 3014 3013 3011 3009 3007 3005 3003 3001 2999 2997 2995 2993 2991 2988 2986 2983 2981 2978 2975 2973 2970 2967 2965 2962 2959 2957 2954 2951 2949 2946 2943 2941 2938 2936 2934 2932 2930 2929 2927 2925 2923 2921
3053 3051 3050 3048 3047 3046 3044 3043 3042 3040 3039 3038 3036 3035 3033 3032 3031 3029 3027 3026 3024 3022 3021 3019 3017 3015 3013 3011 3009 3007 3005 3003 3001 2999 2997 2995 2993 2991 2989 2986 2984 2982 2979 2976 2973 2971 2968 2964 2962 2959 2957 2954 2951 2949 2946 2943 2940 2938 2935 2933 2931 2929 2927 2925 2924 2922 2920 2918 2916
3049 3048 3047 3045 3044 3043 3041 3040 3038 3037 3036 3035 3033 3032 3031 3029 3028 3026 3024 3023 3021 3019 3017 3015 3013 3011 3010 3008 3006 3003 3001 2999 2998 2995 2993 2991 2989 2987 2984 2982 2980 2977 2974 2971 2968 2966 2963 2959 2956 2953 2951 2948 2946 2943 2941 2938 2935 2933 2930 2928 2926 2924 2922 2921 2919 2917 2915 2913 2911
3046 3045 3043 3042 3041 3039 3038 3037 3036 3034 3033 3032 3031 3029 3028 3026 3024 3023 3021 3019 3017 3015 3013 3012 3010 3008 3006 3004 3002 3000 2998 2995 2993 2991 2989 2987 2985 2983 2980 2978 2975 2972 2969 2966 2963 2960 2958 2954 2951 2948 2945 2943 2940 2938 2936 2933 2931 2928 2926 2923 2922 2919 2918 2916 2914 2913 2910 2908 2906
3043 3041 3040 3039 3038 3036 3035 3034 3033 3032 3030 3029 3028 3026 3024 3023 3021 3019 3018 3016 3014 3012 3010 3008 3006 3004 3002 3000 2998 2996 2993 2991 2989 2987 2985 2983 2980 2978 2975 2973 2970 2968 2965 2962 2958 2955 2952 2949 2947 2943 2941 2938 2935 2933 2930 2928 2926 2924 2921 2919 2917 2915 2913 2912 2910 2908 2906 2903 2902
3039 3038 3037 3036 3034 3033 3032 3031 3030 3028 3027 3026 3024 3023 3021 3019 3018 3016 3014 3012 3010 3008 3006 3004 3003 3001 2999 2996 2994 2992 2989 2987 2985 2983 2980 2978 2976 2973 2971 2968 2966 2963 2960 2957 2953 2950 2948 2944 2942 2938 2936 2933 2930 2928 2925 2923 2921 2919 2917 2915 2913 2911 2909 2907 2905 2903 2901 2899 2897
3036 3035 3034 3033 3031 3030 3029 3028 3027 3025 3024 3023 3021 3019 3018 3016 3014 3013 3011 3009 3007 3005 3003 3001 2999 2997 2995 2993 2990 2988 2985 2983 2981 2978 2976 2974 2972 2969 2967 2964 2961 2958 2955 2951 2948 2945 2942 2939 2937 2934 2931 2928 2925 2923 2921 2919 2917 2915 2913 2911 2909 2907 2905 2903 2901 2899 2897 2894 2893
3033 3032 3031 3030 3028 3027 3026 3025 3023 3022 3021 3019 3018 3016 3014 3013 3011 3009 3007 3005 3003 3001 2999 2997 2995 2993 2990 2988 2986 2983 2981 2979 2977 2974 2972 2970 2967 2964 2962 2959 2956 2953 2949 2946 2943 2940 2937 2934 2932 2929 2926 2923 2921 2919 2917 2915 2913 2910 2908 2907 2904 2903 2900 2898 2896 2894 2892 2890 2888
3030 3029 3028 3027 3026 3024 3023 3022 3021 3019 3018 3016 3014 3013 3011 3009 3008 3006 3004 3002 3000 2998 2995 2993 2991 2988 2986 2984 2982 2979 2977 2975 2973 2970 2968 2965 2963 2959 2957 2953 2950 2947 2944 2941 2938 2935 2933 2930 2927 2924 2922 2919 2917 2915 2913 2911 2908 2906 2904 2902 2900 2898 2896 2894 2892 2890 2888 2886 2884
3028 3026 3025 3024 3023 3022 3020 3019 3018 3016 3014 3013 3011 3009 3008 3006 3004 3002 3000 2998 2996 2993 2991 2989 2987 2984 2982 2980 2978 2975 2973 2971 2969 2966 2963 2961 2958 2954 2951 2948 2945 2942 2939 2936 2933 2931 2928 2925 2923 2920 2918 2915 2913 2911 2909 2907 2904 2902 2900 2898 2896 2894 2892 2890 2888 2886 2884 2882 2880
3025 3023 3022 3021 3020 3018 3017 3016 3014 3013 3011 3009 3008 3006 3004 3002 3000 2998 2996 2994 2992 2989 2987 2985 2982 2980 2978 2976 2973 2971 2969 2967 2964 2962 2959 2956 2953 2949 2946 2943 2940 2937 2934 2931 2929 2926 2924 2921 2918 2916 2914 2912 2909 2907 2905 2903 2900 2898 2896 2894 2892 2890 2888 2886 2884 2882 2880 2878 2877
3022 3021 3019 3018 3017 3015 3014 3012 3011 3009 3007 3005 3004 3002 3000 2998 2996 2994 2992 2990 2988 2985 2983 2981 2978 2976 2974 2972 2970 2967 2965 2962 2960 2957 2954 2951 2948 2945 2941 2938 2934 2932 2929 2927 2924 2922 2919 2917 2914 2912 2910 2908 2905 2903 2901 2899 2896 2893 2891 2889 2887 2885 2884 2882 2880 2878 2876 2875 2873
3019 3017 3016 3015 3013 3012 3010 3009 3007 3005 3003 3002 3000 2998 2996 2994 2992 2990 2988 2986 2984 2981 2979 2977 2974 2972 2970 2968 2966 2963 2960 2958 2955 2952 2949 2946 2943 2940 2936 2933 2930 2927 2924 2922 2920 2918 2915 2913 2910 2908 2905 2903 2901 2899 2897 2895 2892 2889 2887 2885 2883 2881 2880 2878 2877 2875 2873 2871 2870
3015 3014 3013 3011 3010 3008 3007 3005 3003 3001 2999 2998 2996 2994 2992 2990 2988 2986 2984 2982 2980 2978 2975 2973 2971 2968 2966 2964 2961 2959 2956 2953 2950 2947 2944 2941 2938 2935 2932 2929 2926 2923 2921 2918 2917 2914 2912 2909 2906 2903 2901 2899 2897 2895 2893 2891 2888 2886 2883 2881 2879 2878 2876 2875 2873 2872 2870 2868 2866
3012 3010 3009 3008 3006 3004 3003 3001 2999 2998 2996 2994 2992 2990 2988 2986 2984 2982 2980 2978 2976 2974 2972 2969 2967 2964 2962 2959 2957 2954 2951 2948 2945 2942 2938 2936 2933 2930 2927 2924 2922 2919 2917 2915 2913 2911 2909 2906 2903 2901 2898 2895 2893 2891 2889 2887 2884 2882 2880 2878 2876 2874 2873 2871 2870 2868 2867 2865 2863
3008 3007 3005 3004 3002 3001 2999 2997 2996 2994 2992 2990 2988 2986 2984 2983 2981 2978 2977 2974 2972 2970 2968 2965 2963 2960 2958 2955 2952 2949 2946 2943 2940 2937 2934 2931 2928 2926 2923 2921 2918 2916 2914 2912 2910 2908 2905 2903 2900 2898 2895 2892 2889 2887 2885 2883 2881 2878 2877 2875 2873 2872 2870 2868 2867 2865 2864 2862 2860
3004 3003 3002 3000 2998 2997 2995 2994 2992 2990 2988 2987 2985 2983 2981 2979 2977 2975 2973 2971 2968 2966 2963 2961 2958 2956 2953 2951 2948 2945 2942 2939 2936 2933 2929 2927 2924 2922 2919 2917 2915 2912 2910 2909 2907 2904 2902 2900 2897 2895 2892 2889 2886 2883 2881 2879 2877 2875 2873 2872 2870 2869 2867 2865 2864 2862 2861 2859 2858
3001 2999 2998 2997 2995 2993 2992 2990 2988 2987 2985 2983 2981 2979 2978 2975 2973 2971 2969 2967 2964 2962 2959 2957 2954 2952 2949 2946 2943 2940 2938 2934 2932 2928 2926 2923 2920 2918 2916 2914 2912 2909 2908 2906 2903 2901 2898 2896 2894 2892 2889 2887 2883 2880 2878 2876 2874 2872 2870 2869 2868 2866 2864 2863 2861 2859 2858 2856 2854
2997 2996 2994 2993 2991 2990 2988 2987 2985 2983 2981 2979 2978 2976 2974 2972 2970 2968 2965 2963 2961 2958 2956 2953 2951 2948 2945 2942 2939 2936 2933 2930 2927 2924 2922 2919 2917 2914 2912 2910 2908 2906 2904 2903 2900 2898 2895 2893 2891 2888 2886 2883 2880 2878 2875 2873 2871 2869 2868 2866 2865 2863 2862 2860 2858 2857 2855 2853 2851
2994 2993 2991 2989 2988 2987 2985 2983 2981 2980 2978 2976 2974 2972 2970 2968 2966 2964 2962 2959 2957 2954 2952 2949 2947 2944 2941 2938 2935 2932 2929 2926 2923 2921 2918 2915 2913 2911 2909 2907 2905 2903 2901 2899 2897 2894 2892 2890 2887 2885 2883 2880 2878 2875 2872 2870 2868 2867 2865 2863 2862 2860 2859 2857 2855 2853 2852 2850 2848
2991 2989 2988 2986 2985 2983 2982 2980 2978 2976 2974 2973 2971 2969 2967 2965 2963 2960 2958 2956 2953 2950 2948 2945 2942 2939 2937 2934 2931 2928 2925 2923 2920 2917 2915 2912 2910 2908 2905 2904 2902 2900 2898 2896 2893 2891 2889 2886 2884 2882 2880 2877 2875 2872 2870 2868 2866 2864 2862 2861 2859 2858 2856 2854 2852 2850 2849 2847 2845
2988 2986 2984 2983 2982 2980 2978 2977 2975 2973 2971 2969 2967 2965 2963 2961 2959 2957 2954 2952 2949 2947 2944 2941 2938 2935 2932 2929 2927 2924 2921 2918 2916 2914 2912 2909 2907 2904 2902 2900 2899 2897 2895 2893 2890 2888 2885 2883 2881 2879 2877 2875 2872 2870 2868 2865 2863 2862 2860 2858 2856 2855 2853 2851 2849 2847 2845 2843 2842
2984 2983 2981 2980 2978 2977 2975 2973 2971 2970 2968 2966 2964 2962 2960 2958 2955 2953 2950 2948 2945 2943 2940 2937 2934 2931 2928 2925 2923 2920 2918 2915 2913 2911 2908 2906 2903 2901 2899 2897 2895 2894 2892 2889 2887 2885 2883 2880 2878 2876 2874 2872 2869 2867 2865 2863 2861 2859 2857 2855 2853 2852 2850 2848 2846 2844 2842 2840 2838
2981 2980 2978 2977 2975 2973 2972 2970 2968 2966 2964 2963 2960 2958 2956 2954 2952 2949 2947 2944 2941 2938 2936 2933 2930 2927 2924 2922 2919 2917 2914 2912 2909 2907 2905 2903 2900 2898 2896 2894 2892 2891 2888 2886 2884 2882 2879 2878 2876 2873 2872 2869 2867 2865 2863 2860 2858 2856 2854 2852 2850 2848 2847 2845 2843 2841 2839 2837 2835
2978 2977 2975 2973 2972 2970 2968 2966 2965 2963 2961 2959 2957 2955 2953 2950 2948 2945 2943 2940 2938 2935 2932 2929 2927 2924 2921 2918 2915 2913 2911 2908 2906 2904 2902 2900 2898 2895 2893 2891 2889 2888 2886 2883 2881 2879 2877 2875 2873 2871 2869 2867 2864 2862 2860 2858 2855 2853 2851 2849 2847 2845 2844 2842 2840 2838 2836 2834 2833
2975 2973 2972 2970 2968 2967 2965 2963 2961 2959 2957 2955 2953 2951 2949 2947 2944 2942 2939 2936 2934 2931 2928 2926 2923 2920 2918 2915 2913 2910 2908 2906 2903 2901 2899 2897 2894 2892 2890 2888 2886 2884 2883 2881 2878 2876 2874 2873 2871 2869 2866 2864 2861 2859 2857 2854 2852 2850 2848 2846 2844 2842 2841 2839 2837 2835 2833 2832 2830
2971 2970 2968 2966 2965 2963 2961 2959 2958 2956 2954 2952 2950 2948 2945 2943 2940 2938 2935 2933 2930 2927 2924 2921 2919 2917 2914 2912 2909 2907 2905 2903 2901 2898 2896 2893 2891 2889 2887 2884 2883 2881 2880 2878 2876 2874 2872 2870 2868 2866 2864 2861 2859 2856 2854 2852 2849 2847 2845 2843 2841 2839 2838 2836 2834 2832 2830 2828 2827
2968 2966 2964 2963 2961 2959 2958 2956 2954 2952 2950 2948 2946 2944 2942 2939 2937 2934 2931 2928 2926 2923 2920 2918 2915 2913 2911 2908 2906 2904 2902 2900 2898 2896 2893 2891 2888 2886 2884 2881 2880 2878 2877 2875 2873 2872 2870 2868 2866 2864 2862 2859 2856 2854 2851 2849 2847 2844 2843 2840 2838 2836 2835 2833 2831 2829 2827 2825 2824
2964 2963 2961 2959 2958 2956 2954 2952 2950 2948 2947 2945 2942 2940 2938 2935 2933 2930 2928 2925 2922 2919 2917 2914 2912 2910 2908 2905 2903 2901 2899 2897 2895 2893 2891 2888 2886 2883 2881 2879 2877 2875 2874 2873 2871 2869 2868 2866 2864 2862 2859 2857 2854 2852 2849 2847 2844 2842 2840 2838 2836 2834 2832 2830 2828 2826 2824 2822 2821
2961 2959 2958 2956 2954 2953 2951 2949 2947 2945 2943 2941 2939 2936 2934 2932 2929 2927 2924 2921 2918 2916 2913 2911 2908 2906 2904 2902 2900 2898 2896 2894 2893 2891 2888 2886 2883 2881 2879 2876 2874 2873 2872 2870 2869 2867 2865 2863 2862 2860 2858 2855 2853 2850 2848 2845 2843 2840 2838 2836 2834 2832 2829 2827 2825 2823 2822 2819 2818